Puyallup, WA

1:06 PM PDT on May 23, 2017 (GMT -0700)
Pierce County - Thun Field

Weather History for KPLU - February, 2012

Change the Weather History Date:

Tuesday, February 28, 2012

  Actual Average (KTCM) Record (KTCM)
Temperature  
Mean Temperature 37 °F -  
Max Temperature 46 °F 48 °F 68 °F (1968)
Min Temperature 28 °F 30 °F 19 °F (1960)
Degree Days  
Heating Degree Days 28    
Moisture  
Dew Point 30 °F    
Average Humidity 74    
Maximum Humidity 100    
Minimum Humidity 46    
Precipitation  
Precipitation 0.01 in - - ()
Sea Level Pressure  
Sea Level Pressure 29.73 in    
Wind  
Wind Speed 1 mph (South)    
Max Wind Speed 12 mph    
Max Gust Speed 24 mph    
Visibility 10 miles    
Events Rain    
Averages and records for this station are not official NWS values.
T = Trace of Precipitation, MM = Missing Value Source: NWS Daily Summary

Daily Weather History Graph

Daily Weather History Graph

Search for Another Location

Airport or City:

Trip Planner

Search our weather history database for the weather conditions in past years. The results will help you decide how hot, cold, wet, or windy it might be!

Date:

Astronomy

Feb. 28, 2012 Rise Set
Actual Time 6:51 AM PST 5:52 PM PST
Civil Twilight 6:21 AM PST 6:23 PM PST
Nautical Twilight 5:45 AM PST 6:58 PM PST
Astronomical Twilight 5:10 AM PST 7:33 PM PST
Moon 9:34 AM PST (2/28) 12:18 AM PST (2/28)
Length of Visible Light 12h 02m
Length of Day
11h 00m
Waxing Crescent, 39% of the Moon is Illuminated
Feb 28
Waxing Crescent
Feb 29
First Quarter
Mar 8
Full
Mar 14
Last Quarter
Mar 22
New

Hourly Weather History & Observations

Time (PST) Temp. Windchill Dew Point Humidity Pressure Visibility Wind Dir Wind Speed Gust Speed Precip Events Conditions
12:15 AM 32.0 °F - 30.2 °F 93% 29.96 in 10.0 mi Calm Calm - N/A   Clear
12:35 AM 32.0 °F - 30.2 °F 93% 29.96 in 10.0 mi Calm Calm - N/A   Clear
12:55 AM 32.0 °F - 30.2 °F 93% 29.95 in 10.0 mi Calm Calm - N/A   Clear
1:15 AM 32.0 °F - 30.2 °F 93% 29.95 in 10.0 mi Calm Calm - N/A   Clear
1:35 AM 32.0 °F - 30.2 °F 93% 29.94 in 10.0 mi Calm Calm - N/A   Clear
1:55 AM 32.0 °F - 30.2 °F 93% 29.94 in 10.0 mi Calm Calm - N/A   Clear
2:15 AM 32.0 °F - 30.2 °F 93% 29.94 in 10.0 mi Calm Calm - N/A   Clear
2:35 AM 30.2 °F - 28.4 °F 93% 29.93 in 10.0 mi Calm Calm - N/A   Clear
2:55 AM 30.2 °F - 30.2 °F 100% 29.93 in 10.0 mi Calm Calm - N/A   Partly Cloudy
3:15 AM 30.2 °F - 30.2 °F 100% 29.92 in 10.0 mi Calm Calm - N/A   Clear
4:15 AM 32.0 °F - 30.2 °F 93% 29.90 in 10.0 mi Calm Calm - N/A   Partly Cloudy
4:35 AM 32.0 °F - 30.2 °F 93% 29.89 in 10.0 mi Calm Calm - N/A   Mostly Cloudy
4:55 AM 30.2 °F - 30.2 °F 100% 29.89 in 10.0 mi Calm Calm - N/A   Mostly Cloudy
5:15 AM 30.2 °F - 30.2 °F 100% 29.88 in 10.0 mi Calm Calm - N/A   Scattered Clouds
5:35 AM 30.2 °F - 30.2 °F 100% 29.87 in 10.0 mi Calm Calm - N/A   Partly Cloudy
5:55 AM 30.2 °F - 30.2 °F 100% 29.87 in 10.0 mi Calm Calm - N/A   Mostly Cloudy
6:15 AM 32.0 °F - 28.4 °F 87% 29.86 in 10.0 mi Calm Calm - N/A   Scattered Clouds
6:35 AM 30.2 °F - 28.4 °F 93% 29.85 in 10.0 mi Calm Calm - N/A   Clear
6:55 AM 30.2 °F - 30.2 °F 100% 29.85 in 10.0 mi Calm Calm - N/A   Clear
7:15 AM 28.4 °F - 28.4 °F 100% 29.85 in 10.0 mi Calm Calm - N/A   Clear
7:35 AM 30.2 °F - 30.2 °F 100% 29.84 in 10.0 mi Calm Calm - N/A   Clear
7:55 AM 32.0 °F - 30.2 °F 93% 29.84 in 10.0 mi Calm Calm - N/A   Clear
8:15 AM 32.0 °F - 30.2 °F 93% 29.85 in 10.0 mi Calm Calm - N/A   Clear
8:35 AM 33.8 °F - 30.2 °F 87% 29.84 in 10.0 mi Calm Calm - N/A   Clear
8:55 AM 33.8 °F - 32.0 °F 93% 29.84 in 10.0 mi Calm Calm - N/A   Clear
9:15 AM 35.6 °F - 32.0 °F 87% 29.83 in 10.0 mi Calm Calm - N/A   Clear
9:35 AM 37.4 °F - 30.2 °F 75% 29.82 in 10.0 mi Calm Calm - N/A   Clear
9:55 AM 39.2 °F - 28.4 °F 65% 29.81 in 10.0 mi Calm Calm - N/A   Partly Cloudy
10:15 AM 39.2 °F - 28.4 °F 65% 29.80 in 10.0 mi Calm Calm - N/A   Partly Cloudy
10:35 AM 41.0 °F - 24.8 °F 53% 29.80 in 10.0 mi Calm Calm - N/A   Partly Cloudy
10:55 AM 41.0 °F - 24.8 °F 53% 29.79 in 10.0 mi Calm Calm - N/A   Partly Cloudy
11:15 AM 42.8 °F - 26.6 °F 53% 29.78 in 10.0 mi Calm Calm - N/A   Partly Cloudy
11:35 AM 42.8 °F - 26.6 °F 53% 29.78 in 10.0 mi Calm Calm - N/A   Clear
11:55 AM 42.8 °F - 26.6 °F 53% 29.76 in 10.0 mi Calm Calm - N/A   Clear
12:15 PM 42.8 °F - 26.6 °F 53% 29.75 in 10.0 mi Calm Calm - N/A   Clear
12:35 PM 42.8 °F - 26.6 °F 53% 29.74 in 10.0 mi Calm Calm - N/A   Clear
12:55 PM 42.8 °F - 28.4 °F 57% 29.73 in 10.0 mi Calm Calm - N/A   Partly Cloudy
1:15 PM 42.8 °F - 28.4 °F 57% 29.72 in 10.0 mi Calm Calm - N/A   Clear
1:35 PM 42.8 °F - 28.4 °F 57% 29.71 in 10.0 mi Calm Calm - N/A   Clear
1:55 PM 44.6 °F 39.2 °F 26.6 °F 49% 29.69 in 10.0 mi South 10.4 mph 18.4 mph N/A   Clear
2:15 PM 44.6 °F 40.2 °F 24.8 °F 46% 29.67 in 10.0 mi SSE 8.1 mph 16.1 mph N/A   Clear
2:55 PM 44.6 °F - 26.6 °F 49% 29.62 in 10.0 mi Calm Calm - N/A   Clear
3:15 PM 44.6 °F - 26.6 °F 49% 29.61 in 10.0 mi Calm Calm - N/A   Clear
3:55 PM 44.6 °F - 28.4 °F 53% 29.59 in 10.0 mi Calm Calm - N/A   Clear
4:15 PM 42.8 °F - 30.2 °F 61% 29.58 in 10.0 mi Calm Calm - N/A   Partly Cloudy
4:35 PM 44.6 °F - 30.2 °F 57% 29.56 in 10.0 mi Calm Calm - N/A   Clear
4:55 PM 44.6 °F 40.7 °F 32.0 °F 61% 29.55 in 10.0 mi SSE 6.9 mph - N/A   Clear
5:15 PM 44.6 °F 41.4 °F 32.0 °F 61% 29.54 in 10.0 mi South 5.8 mph - N/A   Clear
5:35 PM 44.6 °F - 32.0 °F 61% 29.52 in 10.0 mi Calm Calm - N/A   Clear
5:55 PM 44.6 °F 40.2 °F 32.0 °F 61% 29.51 in 10.0 mi South 8.1 mph 18.4 mph N/A   Clear
6:15 PM 44.6 °F 40.7 °F 32.0 °F 61% 29.49 in 10.0 mi SSE 6.9 mph - N/A   Clear
6:35 PM 44.6 °F 42.2 °F 32.0 °F 61% 29.48 in 10.0 mi South 4.6 mph - N/A   Clear
6:55 PM 44.6 °F 41.4 °F 32.0 °F 61% 29.48 in 10.0 mi South 5.8 mph - N/A   Clear
7:15 PM 44.6 °F 42.2 °F 32.0 °F 61% 29.48 in 10.0 mi SSE 4.6 mph - N/A   Clear
7:35 PM 44.6 °F 40.2 °F 32.0 °F 61% 29.46 in 10.0 mi South 8.1 mph 17.3 mph N/A   Clear
7:55 PM 44.6 °F 42.2 °F 32.0 °F 61% 29.46 in 10.0 mi SSW 4.6 mph - N/A   Clear
8:15 PM 44.6 °F 43.1 °F 32.0 °F 61% 29.45 in 10.0 mi SSE 3.5 mph - N/A   Clear
8:35 PM 44.6 °F 41.4 °F 30.2 °F 57% 29.45 in 10.0 mi South 5.8 mph - N/A   Clear
8:55 PM 46.4 °F 41.1 °F 32.0 °F 57% 29.45 in 10.0 mi SSW 11.5 mph 17.3 mph N/A   Clear
9:15 PM 44.6 °F 39.2 °F 33.8 °F 66% 29.46 in 9.0 mi SSW 10.4 mph 24.2 mph N/A   Light Drizzle
9:35 PM 42.8 °F 37.5 °F 35.6 °F 76% 29.47 in 10.0 mi SSW 9.2 mph 17.3 mph N/A   Light Drizzle
9:55 PM 41.0 °F 34.7 °F 35.6 °F 81% 29.48 in 8.0 mi South 10.4 mph 16.1 mph N/A Rain Light Rain
10:15 PM 39.2 °F 32.5 °F 37.4 °F 93% 29.49 in 5.0 mi SSW 10.4 mph 17.3 mph 0.01 in Rain Light Rain
10:35 PM 39.2 °F 35.0 °F 37.4 °F 93% 29.49 in 8.0 mi SSW 5.8 mph - 0.02 in   Light Drizzle
10:55 PM 39.2 °F 34.2 °F 37.4 °F 93% 29.50 in 9.0 mi South 6.9 mph - 0.02 in   Light Drizzle
11:15 PM 39.2 °F 33.0 °F 37.4 °F 93% 29.51 in 8.0 mi SSW 9.2 mph 20.7 mph N/A   Scattered Clouds
11:35 PM 39.2 °F 33.6 °F 35.6 °F 87% 29.51 in 10.0 mi South 8.1 mph - N/A   Partly Cloudy
11:55 PM 37.4 °F 33.8 °F 35.6 °F 93% 29.52 in 10.0 mi SSW 4.6 mph - N/A   Partly Cloudy